Terminal Aerodrome Forecast
Issued by NWS

Home | Current Version | Previous Version | Text Only | Print | Product List | Glossary On
Versions: 1 2 3 4 5 6 7 8 9 10 11 12 13 14 15 16 17 18 19 20 21 22 23
000
FTUS46 KLOX 260807 AAA
TAFSBP
TAF AMD
KSBP 260807Z 2608/2706 VRB03KT P6SM OVC010
     FM261000 VRB03KT 5SM BR OVC008
     FM261600 VRB03KT 6SM BR BKN010
     FM261800 VRB03KT P6SM SKC
     FM262000 30012KT P6SM SKC
     FM270200 31008KT P6SM SKC
     FM270400 31006KT P6SM BKN010=

USA.gov is the U.S. government's official web portal to all federal, state and local government web resources and services.